Time,TemperatureF,DewpointF,PressureIn,WindDirection,WindDirectionDegrees,WindSpeedMPH,WindSpeedGustMPH,Humidity,HourlyPrecipIn,Conditions,Clouds,dailyrainin,SolarRadiationWatts/m^2,SoftwareType,DateUTC
2017-07-21 00:04:00,75.2,71.7,30.09,SSE,158,0.0,0.0,89,0.00,CLR,,0.00,0.0,WeatherDisplay:10.37,2017-07-21 05:04:00,
2017-07-21 00:09:00,75.0,71.9,30.09,SSE,158,0.0,0.0,90,0.00,CLR,,0.00,0.0,WeatherDisplay:10.37,2017-07-21 05:09:00,
2017-07-21 00:14:00,75.4,71.9,30.09,SSE,158,3.5,3.5,89,0.00,CLR,,0.00,0.0,WeatherDisplay:10.37,2017-07-21 05:14:00,
2017-07-21 00:19:00,75.9,72.1,30.09,SSE,158,3.5,3.5,88,0.00,CLR,,0.00,0.0,WeatherDisplay:10.37,2017-07-21 05:19:00,
2017-07-21 00:24:00,75.7,71.9,30.09,SSE,158,3.5,3.5,88,0.00,CLR,,0.00,0.0,WeatherDisplay:10.37,2017-07-21 05:24:00,
2017-07-21 00:29:00,75.7,71.9,30.09,SSE,158,3.5,3.5,88,0.00,CLR,,0.00,0.0,WeatherDisplay:10.37,2017-07-21 05:29:00,
2017-07-21 00:34:00,75.9,71.8,30.09,SSE,158,4.6,4.6,87,0.00,CLR,,0.00,0.0,WeatherDisplay:10.37,2017-07-21 05:34:00,
2017-07-21 00:39:00,75.7,71.6,30.09,ESE,112,4.6,4.6,87,0.00,CLR,,0.00,0.0,WeatherDisplay:10.37,2017-07-21 05:39:00,
2017-07-21 00:44:00,75.7,71.6,30.09,East,90,3.5,0.0,87,0.00,CLR,,0.00,0.0,WeatherDisplay:10.37,2017-07-21 05:44:00,
2017-07-21 00:49:00,75.9,71.4,30.09,East,90,4.6,4.6,86,0.00,CLR,,0.00,0.0,WeatherDisplay:10.37,2017-07-21 05:49:00,
2017-07-21 00:54:00,75.9,71.4,30.09,ESE,112,4.6,4.6,86,0.00,CLR,,0.00,0.0,WeatherDisplay:10.37,2017-07-21 05:54:00,
2017-07-21 00:59:00,75.9,71.4,30.09,ESE,112,3.5,0.0,86,0.00,CLR,,0.00,0.0,WeatherDisplay:10.37,2017-07-21 05:59:00,
2017-07-21 01:04:00,75.6,71.1,30.09,ESE,112,3.5,0.0,86,0.00,CLR,,0.00,0.0,WeatherDisplay:10.37,2017-07-21 06:04:00,
2017-07-21 01:09:00,75.4,71.2,30.09,ESE,112,3.5,0.0,87,0.00,CLR,,0.00,0.0,WeatherDisplay:10.37,2017-07-21 06:09:00,
2017-07-21 01:14:00,75.0,71.2,30.09,ESE,112,0.0,0.0,88,0.00,CLR,,0.00,0.0,WeatherDisplay:10.37,2017-07-21 06:14:00,
2017-07-21 01:19:00,74.8,71.4,30.09,ESE,112,0.0,0.0,89,0.00,CLR,,0.00,0.0,WeatherDisplay:10.37,2017-07-21 06:19:00,
2017-07-21 01:24:00,74.5,71.0,30.09,ESE,112,0.0,0.0,89,0.00,CLR,,0.00,0.0,WeatherDisplay:10.37,2017-07-21 06:24:00,
2017-07-21 01:29:00,74.3,70.8,30.09,ESE,112,0.0,0.0,89,0.00,CLR,,0.00,0.0,WeatherDisplay:10.37,2017-07-21 06:29:00,
2017-07-21 01:30:00,73.9,70.8,30.09,ESE,112,0.0,0.0,90,0.00,CLR,,0.00,0.0,WeatherDisplay:10.37,2017-07-21 06:30:00,
2017-07-21 01:35:00,73.8,71.0,30.06,ESE,112,0.0,0.0,91,0.00,CLR,,0.00,0.0,WeatherDisplay:10.37,2017-07-21 06:35:00,
2017-07-21 01:40:00,73.6,71.1,30.06,ESE,112,0.0,0.0,92,0.00,CLR,,0.00,0.0,WeatherDisplay:10.37,2017-07-21 06:40:00,
2017-07-21 01:45:00,73.4,71.3,30.06,ESE,112,0.0,0.0,93,0.00,CLR,,0.00,0.0,WeatherDisplay:10.37,2017-07-21 06:45:00,
2017-07-21 01:50:00,73.2,71.4,30.09,ESE,112,0.0,0.0,94,0.00,CLR,,0.00,0.0,WeatherDisplay:10.37,2017-07-21 06:50:00,
2017-07-21 01:55:00,73.0,71.2,30.09,ESE,112,0.0,0.0,94,0.00,CLR,,0.00,0.0,WeatherDisplay:10.37,2017-07-21 06:55:00,
2017-07-21 02:00:00,72.7,71.2,30.09,ESE,112,0.0,0.0,95,0.00,CLR,,0.00,0.0,WeatherDisplay:10.37,2017-07-21 07:00:00,
2017-07-21 02:05:00,72.5,71.0,30.06,ESE,112,0.0,0.0,95,0.00,CLR,,0.00,0.0,WeatherDisplay:10.37,2017-07-21 07:05:00,
2017-07-21 02:10:00,72.5,71.3,30.06,ESE,112,0.0,0.0,96,0.00,CLR,,0.00,0.0,WeatherDisplay:10.37,2017-07-21 07:10:00,
2017-07-21 02:15:00,72.3,71.1,30.06,ESE,112,0.0,0.0,96,0.00,CLR,,0.00,0.0,WeatherDisplay:10.37,2017-07-21 07:15:00,
2017-07-21 02:20:00,72.1,70.9,30.06,ESE,112,0.0,0.0,96,0.00,CLR,,0.00,0.0,WeatherDisplay:10.37,2017-07-21 07:20:00,
2017-07-21 02:25:00,72.1,71.2,30.09,ESE,112,0.0,0.0,97,0.00,CLR,,0.00,0.0,WeatherDisplay:10.37,2017-07-21 07:25:00,
2017-07-21 02:30:00,72.1,71.2,30.09,ESE,112,0.0,0.0,97,0.00,CLR,,0.00,0.0,WeatherDisplay:10.37,2017-07-21 07:30:00,
2017-07-21 02:35:00,72.0,71.1,30.06,ESE,112,0.0,0.0,97,0.00,CLR,,0.00,0.0,WeatherDisplay:10.37,2017-07-21 07:35:00,
2017-07-21 02:40:00,72.1,71.2,30.06,ESE,112,0.0,0.0,97,0.00,CLR,,0.00,0.0,WeatherDisplay:10.37,2017-07-21 07:40:00,
2017-07-21 02:45:00,72.1,71.2,30.06,ESE,112,0.0,0.0,97,0.00,CLR,,0.00,0.0,WeatherDisplay:10.37,2017-07-21 07:45:00,
2017-07-21 02:50:00,72.1,71.2,30.06,ESE,112,0.0,0.0,97,0.00,CLR,,0.00,0.0,WeatherDisplay:10.37,2017-07-21 07:50:00,
2017-07-21 02:55:00,72.3,71.4,30.06,ESE,112,0.0,0.0,97,0.00,CLR,,0.00,0.0,WeatherDisplay:10.37,2017-07-21 07:55:00,
2017-07-21 03:00:00,72.3,71.4,30.06,ESE,112,0.0,0.0,97,0.00,CLR,,0.00,0.0,WeatherDisplay:10.37,2017-07-21 08:00:00,
2017-07-21 03:05:00,72.5,71.6,30.06,ESE,112,0.0,0.0,97,0.00,CLR,,0.00,0.0,WeatherDisplay:10.37,2017-07-21 08:05:00,
2017-07-21 03:10:00,72.5,71.6,30.06,ESE,112,0.0,0.0,97,0.00,CLR,,0.00,0.0,WeatherDisplay:10.37,2017-07-21 08:10:00,
2017-07-21 03:11:00,72.5,71.6,30.06,ESE,112,0.0,0.0,97,0.00,CLR,,0.00,0.0,WeatherDisplay:10.37,2017-07-21 08:11:00,
2017-07-21 03:16:00,72.5,71.6,30.06,ESE,112,0.0,0.0,97,0.00,CLR,,0.00,0.0,WeatherDisplay:10.37,2017-07-21 08:16:00,
2017-07-21 03:21:00,72.5,71.6,30.06,ESE,112,0.0,0.0,97,0.00,CLR,,0.00,0.0,WeatherDisplay:10.37,2017-07-21 08:21:00,
2017-07-21 03:26:00,72.5,71.6,30.06,ESE,112,0.0,0.0,97,0.00,CLR,,0.00,0.0,WeatherDisplay:10.37,2017-07-21 08:26:00,
2017-07-21 03:31:00,72.5,71.6,30.06,ESE,112,0.0,0.0,97,0.00,CLR,,0.00,0.0,WeatherDisplay:10.37,2017-07-21 08:31:00,
2017-07-21 03:36:00,72.5,71.6,30.06,ESE,112,0.0,0.0,97,0.00,CLR,,0.00,0.0,WeatherDisplay:10.37,2017-07-21 08:36:00,
2017-07-21 03:41:00,72.5,71.6,30.06,ESE,112,0.0,0.0,97,0.00,CLR,,0.00,0.0,WeatherDisplay:10.37,2017-07-21 08:41:00,
2017-07-21 03:46:00,72.5,71.6,30.06,ESE,112,0.0,0.0,97,0.00,CLR,,0.00,0.0,WeatherDisplay:10.37,2017-07-21 08:46:00,
2017-07-21 03:51:00,72.5,71.6,30.06,ESE,112,0.0,0.0,97,0.00,,,0.00,0.0,WeatherDisplay:10.37,2017-07-21 08:51:00,
2017-07-21 03:56:00,72.5,71.6,30.06,ESE,112,0.0,0.0,97,0.00,CLR,,0.00,0.0,WeatherDisplay:10.37,2017-07-21 08:56:00,
2017-07-21 04:01:00,72.5,71.6,30.06,ESE,112,0.0,0.0,97,0.00,CLR,,0.00,0.0,WeatherDisplay:10.37,2017-07-21 09:01:00,
2017-07-21 04:06:00,72.5,71.6,30.06,ESE,112,0.0,0.0,97,0.00,CLR,,0.00,0.0,WeatherDisplay:10.37,2017-07-21 09:06:00,
2017-07-21 04:11:00,72.5,71.9,30.06,ESE,112,0.0,0.0,98,0.00,CLR,,0.00,0.0,WeatherDisplay:10.37,2017-07-21 09:11:00,
2017-07-21 04:16:00,73.0,72.4,30.06,SSE,158,0.0,0.0,98,0.00,CLR,,0.00,0.0,WeatherDisplay:10.37,2017-07-21 09:16:00,
2017-07-21 04:21:00,73.2,72.6,30.06,SE,135,0.0,0.0,98,0.00,CLR,,0.00,0.0,WeatherDisplay:10.37,2017-07-21 09:21:00,
2017-07-21 04:26:00,73.4,72.5,30.06,SSE,158,0.0,0.0,97,0.00,CLR,,0.00,0.0,WeatherDisplay:10.37,2017-07-21 09:26:00,
2017-07-21 04:31:00,73.4,72.2,30.06,SSE,158,0.0,0.0,96,0.00,CLR,,0.00,0.0,WeatherDisplay:10.37,2017-07-21 09:31:00,
2017-07-21 04:36:00,73.4,72.2,30.06,SSE,158,0.0,0.0,96,0.00,CLR,,0.00,0.0,WeatherDisplay:10.37,2017-07-21 09:36:00,
2017-07-21 04:37:00,73.4,72.2,30.06,SSE,158,0.0,0.0,96,0.00,CLR,,0.00,0.0,WeatherDisplay:10.37,2017-07-21 09:37:00,
2017-07-21 04:42:00,73.4,72.2,30.06,SSE,158,0.0,0.0,96,0.00,CLR,,0.00,0.0,WeatherDisplay:10.37,2017-07-21 09:42:00,
2017-07-21 04:47:00,73.4,72.2,30.06,SSE,158,0.0,0.0,96,0.00,CLR,,0.00,0.0,WeatherDisplay:10.37,2017-07-21 09:47:00,
2017-07-21 04:52:00,73.4,72.2,30.06,SSE,158,0.0,0.0,96,0.00,CLR,,0.00,0.0,WeatherDisplay:10.37,2017-07-21 09:52:00,
2017-07-21 04:57:00,73.6,72.4,30.06,SSE,158,0.0,0.0,96,0.00,CLR,,0.00,0.0,WeatherDisplay:10.37,2017-07-21 09:57:00,
2017-07-21 05:02:00,73.8,72.5,30.06,SSE,158,0.0,0.0,96,0.00,CLR,,0.00,0.0,WeatherDisplay:10.37,2017-07-21 10:02:00,
2017-07-21 05:07:00,73.8,72.5,30.06,SSE,158,0.0,0.0,96,0.00,CLR,,0.00,0.0,WeatherDisplay:10.37,2017-07-21 10:07:00,
2017-07-21 05:12:00,73.6,72.1,30.06,SSE,158,0.0,0.0,95,0.00,CLR,,0.00,0.0,WeatherDisplay:10.37,2017-07-21 10:12:00,
2017-07-21 05:17:00,73.4,71.9,30.06,SSE,158,0.0,0.0,95,0.00,CLR,,0.00,0.0,WeatherDisplay:10.37,2017-07-21 10:17:00,
2017-07-21 05:22:00,73.2,72.0,30.09,SSE,158,0.0,0.0,96,0.00,CLR,,0.00,0.0,WeatherDisplay:10.37,2017-07-21 10:22:00,
2017-07-21 05:27:00,73.2,72.0,30.09,SSE,158,0.0,0.0,96,0.00,CLR,,0.00,0.0,WeatherDisplay:10.37,2017-07-21 10:27:00,
2017-07-21 05:32:00,73.0,71.8,30.09,SSE,158,0.0,0.0,96,0.00,CLR,,0.00,0.0,WeatherDisplay:10.37,2017-07-21 10:32:00,
2017-07-21 05:37:00,73.0,71.8,30.09,SSE,158,0.0,0.0,96,0.00,CLR,,0.00,0.0,WeatherDisplay:10.37,2017-07-21 10:37:00,
2017-07-21 05:42:00,72.7,71.5,30.09,SSE,158,0.0,0.0,96,0.00,CLR,,0.00,0.0,WeatherDisplay:10.37,2017-07-21 10:42:00,
2017-07-21 05:47:00,72.5,71.6,30.09,SSE,158,0.0,0.0,97,0.00,CLR,,0.00,0.0,WeatherDisplay:10.37,2017-07-21 10:47:00,
2017-07-21 05:52:00,72.3,71.4,30.09,SSE,158,0.0,0.0,97,0.00,CLR,,0.00,0.0,WeatherDisplay:10.37,2017-07-21 10:52:00,
2017-07-21 05:57:00,72.0,71.4,30.09,SSE,158,0.0,0.0,98,0.00,CLR,,0.00,0.0,WeatherDisplay:10.37,2017-07-21 10:57:00,
2017-07-21 06:02:00,72.0,71.4,30.09,SSE,158,0.0,0.0,98,0.00,CLR,,0.00,0.0,WeatherDisplay:10.37,2017-07-21 11:02:00,
2017-07-21 06:07:00,71.8,71.2,30.09,SSE,158,0.0,0.0,98,0.00,CLR,,0.00,0.0,WeatherDisplay:10.37,2017-07-21 11:07:00,
2017-07-21 06:12:00,71.8,71.2,30.09,SSE,158,0.0,0.0,98,0.00,CLR,,0.00,0.0,WeatherDisplay:10.37,2017-07-21 11:12:00,
2017-07-21 06:17:00,71.8,71.2,30.09,SSE,158,0.0,0.0,98,0.00,CLR,,0.00,0.0,WeatherDisplay:10.37,2017-07-21 11:17:00,
2017-07-21 06:22:00,71.8,71.2,30.09,SSE,158,0.0,0.0,98,0.00,CLR,,0.00,0.0,WeatherDisplay:10.37,2017-07-21 11:22:00,
2017-07-21 06:27:00,72.0,71.4,30.09,SSE,158,0.0,0.0,98,0.00,CLR,,0.00,0.0,WeatherDisplay:10.37,2017-07-21 11:27:00,
2017-07-21 06:32:00,72.1,71.5,30.09,SSE,158,0.0,0.0,98,0.00,CLR,,0.00,0.0,WeatherDisplay:10.37,2017-07-21 11:32:00,
2017-07-21 06:37:00,72.0,71.4,30.09,SSE,158,0.0,0.0,98,0.00,CLR,,0.00,0.0,WeatherDisplay:10.37,2017-07-21 11:37:00,
2017-07-21 06:42:00,72.1,71.5,30.09,SSE,158,0.0,0.0,98,0.00,CLR,,0.00,0.0,WeatherDisplay:10.37,2017-07-21 11:42:00,
2017-07-21 06:47:00,72.1,71.5,30.09,SSE,158,0.0,0.0,98,0.00,CLR,,0.00,0.0,WeatherDisplay:10.37,2017-07-21 11:47:00,
2017-07-21 06:52:00,72.5,71.9,30.09,SSE,158,0.0,0.0,98,0.00,CLR,,0.00,0.0,WeatherDisplay:10.37,2017-07-21 11:52:00,
2017-07-21 06:57:00,72.7,72.1,30.09,SSE,158,0.0,0.0,98,0.00,CLR,,0.00,0.0,WeatherDisplay:10.37,2017-07-21 11:57:00,
2017-07-21 07:02:00,72.9,72.3,30.09,SSE,158,0.0,0.0,98,0.00,CLR,,0.00,0.0,WeatherDisplay:10.37,2017-07-21 12:02:00,
2017-07-21 07:07:00,73.2,72.6,30.09,SSE,158,0.0,0.0,98,0.00,CLR,,0.00,0.0,WeatherDisplay:10.37,2017-07-21 12:07:00,
2017-07-21 07:12:00,73.6,72.7,30.09,SSE,158,0.0,0.0,97,0.00,CLR,,0.00,0.0,WeatherDisplay:10.37,2017-07-21 12:12:00,
2017-07-21 07:17:00,74.1,72.9,30.09,SSE,158,0.0,0.0,96,0.00,CLR,,0.00,0.0,WeatherDisplay:10.37,2017-07-21 12:17:00,
2017-07-21 07:22:00,74.3,72.8,30.09,SSE,158,0.0,0.0,95,0.00,CLR,,0.00,0.0,WeatherDisplay:10.37,2017-07-21 12:22:00,
2017-07-21 07:27:00,74.7,73.1,30.09,SSE,158,0.0,0.0,95,0.00,CLR,,0.00,0.0,WeatherDisplay:10.37,2017-07-21 12:27:00,
2017-07-21 07:32:00,75.0,73.2,30.09,SSE,158,0.0,0.0,94,0.00,CLR,,0.00,0.0,WeatherDisplay:10.37,2017-07-21 12:32:00,
2017-07-21 07:37:00,75.7,73.2,30.12,East,90,4.0,4.0,92,0.00,CLR,,0.00,0.0,WeatherDisplay:10.37,2017-07-21 12:37:00,
2017-07-21 07:42:00,76.3,73.1,30.12,ESE,112,3.5,3.5,90,0.00,CLR,,0.00,0.0,WeatherDisplay:10.37,2017-07-21 12:42:00,
2017-07-21 07:47:00,76.8,73.3,30.12,ESE,112,4.6,4.6,89,0.00,CLR,,0.00,0.0,WeatherDisplay:10.37,2017-07-21 12:47:00,
2017-07-21 07:52:00,77.4,73.2,30.12,SE,135,5.8,5.8,87,0.00,CLR,,0.00,0.0,WeatherDisplay:10.37,2017-07-21 12:52:00,
2017-07-21 07:57:00,78.1,73.5,30.12,ESE,112,4.9,4.9,86,0.00,CLR,,0.00,0.0,WeatherDisplay:10.37,2017-07-21 12:57:00,
2017-07-21 08:02:00,78.8,73.2,30.12,ESE,112,5.9,5.9,83,0.00,CLR,,0.00,0.0,WeatherDisplay:10.37,2017-07-21 13:02:00,
2017-07-21 08:07:00,79.5,73.2,30.12,SE,135,5.9,5.9,81,0.00,CLR,,0.00,0.0,WeatherDisplay:10.37,2017-07-21 13:07:00,
2017-07-21 08:12:00,80.2,73.5,30.12,SW,225,0.0,0.0,80,0.00,CLR,,0.00,0.0,WeatherDisplay:10.37,2017-07-21 13:12:00,
2017-07-21 08:17:00,80.8,72.9,30.12,East,90,4.6,4.6,77,0.00,CLR,,0.00,0.0,WeatherDisplay:10.37,2017-07-21 13:17:00,
2017-07-21 08:22:00,81.7,73.4,30.12,South,180,3.5,0.0,76,0.00,CLR,,0.00,0.0,WeatherDisplay:10.37,2017-07-21 13:22:00,
2017-07-21 08:27:00,82.6,73.8,30.12,SSW,202,3.6,3.6,75,0.00,CLR,,0.00,0.0,WeatherDisplay:10.37,2017-07-21 13:27:00,
2017-07-21 08:32:00,82.8,72.8,30.12,SSW,202,3.5,3.5,72,0.00,CLR,,0.00,0.0,WeatherDisplay:10.37,2017-07-21 13:32:00,
2017-07-21 08:37:00,83.1,73.2,30.12,WSW,248,8.1,8.1,72,0.00,CLR,,0.00,0.0,WeatherDisplay:10.37,2017-07-21 13:37:00,
2017-07-21 08:42:00,83.8,72.6,30.12,SSE,158,3.6,0.0,69,0.00,CLR,,0.00,0.0,WeatherDisplay:10.37,2017-07-21 13:42:00,
2017-07-21 08:47:00,84.2,72.5,30.12,SW,225,7.1,7.1,68,0.00,CLR,,0.00,0.0,WeatherDisplay:10.37,2017-07-21 13:47:00,
2017-07-21 08:52:00,84.7,72.1,30.12,ESE,112,6.9,0.0,66,0.00,CLR,,0.00,0.0,WeatherDisplay:10.37,2017-07-21 13:52:00,